Regional Weather Roundup
Issued by NWS

Home | Current Version | Previous Version | Text Only | Print | Product List | Glossary Off
Versions: 1 2 3 4 5 6 7 8 9 10 11 12 13 14 15 16 17 18 19 20 21 22 23 24 25 26 27 28 29 30 31 32 33 34 35 36 37 38 39 40 41 42 43 44 45 46 47 48 49 50

000
ASUS45 KABQ 211010
RWRNM
NEW MEXICO REGIONAL WEATHER ROUNDUP
NATIONAL WEATHER SERVICE ALBUQUERQUE NM
400 AM MDT MON MAY 21 2018

NOTE: "FAIR" MEANS FEW OR NO CLOUDS BELOW 12,000 FEET AGL WITH NO
       SIGNIFICANT WEATHER OR OBSTRUCTIONS TO VISION.

      THIS PRODUCT IS RELEASED AS TWO VERSIONS.  ONE VERSION NEAR
      THE TOP OF THE HOUR CONTAINING PRELIMINARY DATA FROM ALBUQUERQUE
      AND OTHER STATIONS.  A FINAL VERSION WITH ADDITIONAL DATA IS
      ISSUED ABOUT 10 MINUTES AFTER THE HOUR.

NMZ501-503-504-510>518-211100-
NORTHWEST PLATEAU/NORTHCENTRAL MOUNTAINS

CITY           SKY/WX    TMP DP  RH WIND       PRES   REMARKS
FARMINGTON     FAIR      57  29  34 E9        29.99R
LOS ALAMOS     CLOUDY    55  46  70 S7        30.19F
SANTA FE       FAIR      57  48  72 SE13      30.13S
TAOS           CLOUDY    52  40  63 CALM      30.21R
ANGEL FIRE     MOCLDY    44  41  88 CALM      30.27S

$$
NMZ402-403-502-505>509-211100-
WESTCENTRAL MOUNTAINS/SOUTHWEST MOUNTAINS

CITY           SKY/WX    TMP DP  RH WIND       PRES   REMARKS
GALLUP         FAIR      47   9  21 NE5       30.07S
GRANTS         FAIR      48   4  16 CALM      30.11S
SILVER CITY    MOCLDY    54  38  56 CALM      30.04S

$$
NMZ407-409-411-412-211100-
SOUTHERN DESERTS

CITY           SKY/WX    TMP DP  RH WIND       PRES   REMARKS
DEMING         FAIR      69  49  48 E10       29.97S
LAS CRUCES     FAIR      67  54  61 SE13      30.01S
HOLLOMAN AFB   FAIR      62  46  56 S3        30.02R
ALAMOGORDO     FAIR      63  45  51 NE8       30.01R
T OR C         FAIR      68  46  45 CALM      30.01S

$$
NMZ519>523-211100-
CENTRAL VALLEYS/CENTRAL HIGHLANDS

CITY           SKY/WX    TMP DP  RH WIND       PRES   REMARKS
ALBUQUERQUE    FAIR      63  47  55 E17       30.07R
DOUBLE EAGLE   FAIR      56  44  63 SE6       30.10S
MORIARTY ARPT  FAIR      51  48  88 E6        30.16S
CLINES CORNERS CLOUDY    51  47  86 E13       30.19S
BELEN          FAIR      62  46  55 SE5       30.04S
SOCORRO        FAIR      62  42  47 SE5       30.03R

$$
NMZ524>526-539-540-211100-
SOUTHCENTRAL MOUNTAINS

CITY           SKY/WX    TMP DP  RH WIND       PRES   REMARKS
RUIDOSO        FAIR      52  50  93 SE9       30.18F

$$
NMZ527>531-211100-
NORTHEAST HIGHLANDS/NORTHEAST PLAINS

CITY           SKY/WX    TMP DP  RH WIND       PRES   REMARKS
LAS VEGAS      CLOUDY    52  49  89 S5        30.21F
RATON          CLOUDY    52  47  83 SW6       30.19S
CLAYTON        FAIR      50  47  89 S8        30.14S

$$
NMZ532>537-211100-
EASTCENTRAL PLAINS

CITY           SKY/WX    TMP DP  RH WIND       PRES   REMARKS
SANTA ROSA     CLOUDY    58  52  79 E6        30.12S
TUCUMCARI      MOCLDY    60  53  77 CALM      30.10S
CANNON AFB     MOCLDY    55  55 100 E5        30.12S
CLOVIS AIRPORT FAIR      52  51  97 NE5       30.12S

$$
NMZ028-029-538-211100-
SOUTHEAST PLAINS

CITY           SKY/WX    TMP DP  RH WIND       PRES   REMARKS
ROSWELL        CLOUDY    65  58  78 S14       30.05S
ARTESIA        CLOUDY    63  63 100 E9        30.06R
CARLSBAD       FAIR      61  57  87 SE5       30.03R
HOBBS          FAIR      59  55  88 E8        30.07R


$$




USA.gov is the U.S. government's official web portal to all federal, state and local government web resources and services.